Union Aéronautique de la Côte d'Azur

Union Aéronautique de la Côte d'Azur
UACA
Approuvé A.T.O. EASA – N°FR.ATO.0108

UNION des aéroclubs
Cannes “Ailes d’Azur”, Nice “Côte d’Azur”, Grasse “St Exupery”, ACCA “Francis Séverac”

Un cache-pitot se trouve à bord de chaque avion. Pensez à le mettre en place à la fin de chaque vol !

Avant de quitter l'avion, vérifiez que vous n'emportez pas la checklist

Un vol ne s'entreprend qu'avec un pare-brise parfaitement propre, il en va de votre sécurité, et de celle des autres

Après chaque vol, merci de mettre en place les pares-soleil!


Météo à Cannes:
METAR
LFMD 151300Z AUTO 10009KT 050V180 CAVOK 22/11 Q1014 TEMPO 08020G30KT =
AMD LFMD 151018Z 1510/1609 01004KT 9999 BKN090 TEMPO 1510/1518 08020G30KT TEMPO 1522/1603 8000 SHRA SCT020TCU OVC035 BECMG 1600/1603 03005KT BECMG 1603/1605 BKN066

TAF
AMD LFMD 151018Z 1510/1609 01004KT 9999 BKN090 TEMPO 1510/1518 08020G30KT TEMPO 1522/1603 8000 SHRA SCT020TCU OVC035 BECMG 1600/1603 03005KT BECMG 1603/1605 BKN066 =

SR / SS: 05:48 / 16:47 UTC (LFMD 2018-10-15)